Flag for U.S.A. Weather past 2 weeks in Bristol, Tennessee, U.S.A.

Now
23 °F

Clear.


Feels Like: 23 °F
Forecast: 16 / 38 °F
Wind: No wind

Location: Abingdon-Southwest Abingdon

Current Time: Jan 28, 2015 at 2:22:11 AM

Latest Report: Jan 28, 2015 at 1:55 AM


Visibility: 10 mi

Pressure: 30.11 "Hg

Humidity: 67%

Dew point: 14 °F

Location of BristolLocation

Historic Weather in Bristol — Graph

°F

Bristol temperature yesterday

Maximum temperature yesterday: 35 °F (at 3:55 PM)
Minimum temperature yesterday: 25 °F (at 11:55 PM)
Average temperature yesterday: 30 °F

Past Weeks' High & Low Weather Summary

 TemperatureHumidityPressure
High59 °F (Jan 17, 2:15 PM)100% (Jan 14, 8:55 AM)30.35 "Hg (Jan 14, 8:55 AM)
Low24 °F (Jan 28, 1:15 AM)27% (Jan 17, 3:35 PM)29.62 "Hg (Jan 26, 3:55 AM)
Average38 °F73%30.02 "Hg
* Reported Jan 13 1:15 AM — Jan 28 1:15 AM, Bristol, Weather by CustomWeather, © 2014

Note: Actual official high and low records may vary slightly from our data, if they occured in-between our weather recording intervals... More about our weather records

Advertising

Bristol weather history for previous 24 hours

 ConditionsComfort  
Time TempWeatherWind HumidityBarometerVisibility
1:15 AM
Jan 28
24 °FClear.5 mph66%30.11 "Hg10 mi
12:55 AM24 °FClear.6 mph65%30.10 "Hg10 mi
12:35 AM24 °FClear.6 mph63%30.10 "Hg10 mi
12:15 AM25 °FClear.7 mph62%30.10 "Hg10 mi
11:55 PM
Jan 27
25 °FPassing clouds.6 mph61%30.10 "Hg10 mi
11:15 PM26 °FPassing clouds.6 mph57%30.09 "Hg10 mi
10:55 PM27 °FPassing clouds.3 mph55%30.08 "Hg10 mi
10:15 PM28 °FClear.6 mph53%30.06 "Hg10 mi
9:55 PM28 °FPassing clouds.6 mph52%30.05 "Hg10 mi
9:35 PM28 °FPassing clouds.5 mph61%30.05 "Hg10 mi
9:15 PM28 °FPassing clouds.3 mph64%30.04 "Hg10 mi
8:55 PM29 °FClear.6 mph63%30.03 "Hg10 mi
8:35 PM28 °FClear.7 mph64%30.02 "Hg10 mi
8:15 PM29 °FClear.5 mph62%30.01 "Hg10 mi
7:55 PM29 °FClear.6 mph63%30.01 "Hg10 mi
7:15 PM30 °FPassing clouds.5 mph59%30.00 "Hg10 mi
6:55 PM31 °FPassing clouds.6 mph57%29.99 "Hg10 mi
6:35 PM31 °FPassing clouds.5 mph55%29.98 "Hg10 mi
6:15 PM32 °FPassing clouds.6 mph54%29.97 "Hg10 mi
5:55 PM32 °FPassing clouds.6 mph54%29.95 "Hg10 mi
5:35 PM33 °FOvercast.13 mph49%29.95 "Hg10 mi
5:15 PM33 °FMore clouds than sun.8 mph49%29.94 "Hg10 mi
4:55 PM33 °FOvercast.10 mph48%29.93 "Hg10 mi
4:15 PM34 °FBroken clouds.9 mph46%29.91 "Hg10 mi
3:55 PM35 °FScattered clouds.9 mph46%29.91 "Hg10 mi
3:35 PM35 °FScattered clouds.9 mph47%29.90 "Hg10 mi
3:15 PM33 °FSunny.10 mph48%29.89 "Hg10 mi
2:55 PM33 °FScattered clouds.9 mph49%29.89 "Hg10 mi
2:35 PM34 °FScattered clouds.9 mph51%29.89 "Hg10 mi
2:15 PM33 °FBroken clouds.7 mph55%29.89 "Hg10 mi
1:55 PM34 °FOvercast.14 mph56%29.89 "Hg10 mi
1:35 PM33 °FPartly sunny.13 mph58%29.89 "Hg10 mi
1:15 PM32 °FPartly sunny.9 mph60%29.89 "Hg10 mi
12:55 PM32 °FPartly sunny.13 mph61%29.89 "Hg10 mi
12:15 PM32 °FOvercast.10 mph59%29.89 "Hg10 mi
11:55 AM32 °FOvercast.7 mph59%29.90 "Hg10 mi
11:15 AM30 °FPartly sunny.8 mph61%29.90 "Hg10 mi
10:55 AM30 °FPartly sunny.12 mph61%29.90 "Hg10 mi
10:35 AM29 °FOvercast.7 mph65%29.90 "Hg10 mi
10:15 AM29 °FMostly cloudy.7 mph65%29.89 "Hg10 mi
9:55 AM29 °FMostly cloudy.5 mph63%29.89 "Hg10 mi
9:35 AM28 °FCloudy.9 mph65%29.89 "Hg10 mi
9:15 AM28 °FCloudy.6 mph67%29.88 "Hg10 mi
8:55 AM28 °FMostly cloudy.9 mph68%29.87 "Hg10 mi
8:35 AM28 °FOvercast.3 mph71%29.86 "Hg10 mi
8:20 AM28 °FMostly cloudy.3 mph71%29.86 "Hg10 mi
7:55 AM28 °FOvercast.No wind71%29.85 "Hg10 mi
7:35 AM28 °FOvercast.5 mph70%29.84 "Hg10 mi
7:15 AM28 °FOvercast.5 mph70%29.83 "Hg10 mi
6:55 AM28 °FOvercast.3 mph70%29.83 "Hg10 mi
6:15 AM28 °FOvercast.5 mph69%29.80 "Hg10 mi
5:55 AM28 °FOvercast.5 mph70%29.80 "Hg10 mi
5:35 AM28 °FOvercast.5 mph72%29.80 "Hg10 mi
5:15 AM28 °FOvercast.6 mph71%29.80 "Hg10 mi
4:55 AM28 °FOvercast.7 mph71%29.80 "Hg10 mi
4:35 AM28 °FOvercast.7 mph70%29.79 "Hg10 mi
4:15 AM28 °FOvercast.6 mph70%29.80 "Hg10 mi
3:55 AM28 °FOvercast.6 mph70%29.80 "Hg10 mi
3:35 AM28 °FOvercast.7 mph69%29.81 "Hg10 mi
3:15 AM28 °FOvercast.7 mph72%29.81 "Hg10 mi
2:55 AM28 °FOvercast.14 mph71%29.81 "Hg10 mi
2:35 AM28 °FOvercast.8 mph71%29.81 "Hg10 mi
2:15 AM28 °FOvercast.13 mph72%29.81 "Hg10 mi
Weather by CustomWeather, © 2014

See weather overviewHow to use our weather pages